User: anonymous   Login
Location: Caltech
(34.1382°N, 118.1253°W)
Time: 23:43:56
(UTC-07:00)
Language:

Cosmos 2084 - Orbit

View from above orbital plane
View from above orbital plane
View from above satellite
View from above satellite

Ground track
Ground track

The orbit data is extracted from the following two-line orbital elements,

1 20663U 90055A   18116.61788026 +.00000155 +00000-0 +31176-4 0  9994
2 20663 062.7924 261.8247 0127283 120.9171 240.4509 14.91817843506554
Epoch (UTC): 26 April 2018 14:49:44
Eccentricity: 0.0127283
inclination: 62.7924°
perigee height: 503 km
apogee height: 681 km
right ascension of ascending node: 261.8247°
argument of perigee: 120.9171°
revolutions per day: 14.91817843
mean anomaly at epoch: 240.4509°
orbit number at epoch: 50655

The dashed part of the orbit path shows where the satellite is in the earth's shadow,  

DLR